GEFSNGP_500_meanwind_024.txt.gz
Wind_Speed
40 37 33 30 31 32 33 34 32 30 28 34 35 36 39 41 41 38 36 34 34 36 39 41 43 44 46 48 50 52 53 54 55 55 56 57 58 60 61 63 64 66 64 61
39 39 40 40 39 36 32 29 29 31 34 42 46 45 45 46 46 49 50 50 48 47 47 47 48 49 51 52 54 55 55 55 55 55 57 59 61 63 65 65 64 61 57 54
37 37 38 41 41 41 42 42 43 44 47 49 49 48 49 51 53 54 54 54 53 52 50 50 49 50 51 52 53 54 54 54 54 56 58 61 65 66 63 60 57 53 50 50
34 35 39 36 35 39 42 46 47 49 49 49 48 46 47 48 50 52 53 53 53 51 50 49 49 49 49 50 50 51 51 52 55 57 59 61 63 62 59 52 49 47 47 50
33 33 34 30 35 37 40 44 44 44 44 44 45 45 45 46 48 49 50 51 51 50 49 48 47 47 48 48 48 48 49 52 54 56 59 61 59 55 50 46 45 46 47 49
30 31 31 33 35 36 36 40 39 39 38 39 40 42 43 44 45 46 47 47 47 47 46 46 45 45 44 44 45 47 49 52 55 57 58 56 52 48 44 44 45 46 46 47
27 29 30 33 34 35 37 40 39 37 36 36 38 39 40 41 42 42 43 43 43 43 42 40 40 39 40 41 43 46 50 52 53 51 48 45 43 42 42 43 44 44 44 43
26 28 31 33 33 34 35 35 36 35 35 36 36 37 37 38 38 38 38 37 37 35 34 33 33 35 37 40 44 46 47 47 44 42 41 40 39 40 41 42 42 41 39 36
27 27 30 31 32 33 33 34 34 34 34 35 35 34 34 33 33 32 32 31 30 29 28 29 31 33 36 39 41 40 39 37 36 35 37 38 39 39 39 38 36 34 31 28
26 28 31 32 32 32 32 33 33 33 33 33 32 31 30 29 28 27 27 27 26 25 26 28 30 32 34 34 32 31 31 32 33 34 35 36 37 36 34 31 28 25 23 22
24 27 30 31 30 30 30 30 30 30 30 29 28 26 25 24 23 23 22 22 22 23 25 26 26 25 25 26 27 28 30 32 33 34 34 33 32 29 26 23 21 20 20 19
23 25 26 27 26 26 26 26 25 24 23 22 21 20 19 19 18 18 18 18 19 19 19 19 20 21 23 24 26 28 30 31 32 31 29 27 24 21 19 18 18 18 18 17
21 22 23 23 23 23 22 20 18 17 16 14 13 13 12 12 12 13 14 14 14 14 15 17 19 21 23 25 27 29 30 30 29 27 24 21 19 17 16 16 16 17 16 15
18 18 18 17 16 16 14 12 11 10 8 6 6 7 7 7 8 8 9 10 11 13 15 17 19 22 25 27 28 29 29 27 25 22 19 18 16 16 16 16 16 15 14 13
13 13 12 12 11 10 8 7 7 6 4 3 3 3 3 4 5 6 7 9 11 13 15 18 22 25 27 29 29 28 27 24 22 19 17 16 16 16 16 15 14 13 11 10
5 5 5 6 6 7 6 6 5 4 3 2 1 2 2 3 4 5 7 9 12 15 18 21 24 27 28 28 27 25 24 22 20 18 17 16 16 15 14 13 12 10 8 7
0 2 3 5 5 6 5 4 5 5 4 1 1 2 2 4 5 6 8 11 14 17 20 23 26 28 28 28 26 24 22 20 18 17 16 15 15 13 12 10 8 6 5 5
4 5 6 7 7 6 6 6 6 4 3 2 2 4 5 5 6 8 10 13 16 19 22 25 26 27 27 26 24 22 20 19 17 16 15 14 13 11 10 7 5 5 4 5
6 7 7 8 8 8 7 7 5 4 4 4 6 7 6 7 7 9 11 14 17 21 23 25 26 26 25 24 23 21 20 19 17 16 15 13 11 10 8 7 6 6 6 7
5 6 6 8 8 8 7 7 6 5 5 7 8 8 7 8 8 10 13 16 19 22 24 25 25 25 25 25 24 24 23 21 19 17 15 13 12 11 10 9 8 8 9 10
5 6 6 7 7 8 7 7 6 6 7 8 8 8 8 8 9 11 14 17 20 23 24 25 26 27 27 26 27 27 26 24 22 20 17 16 14 14 13 12 12 12 12 13
6 6 6 6 7 8 8 7 7 7 8 8 8 8 8 8 10 12 15 18 20 22 24 26 28 28 28 29 31 31 30 28 26 24 21 19 18 17 16 16 16 16 16 16
7 7 7 7 7 8 8 8 8 8 9 9 9 8 8 9 10 12 14 17 20 22 25 27 29 29 29 31 34 34 34 33 31 29 26 23 21 20 19 19 19 18 18 18
9 9 8 9 8 8 8 9 9 10 10 10 9 8 8 9 10 12 14 16 19 21 24 27 30 30 31 34 35 36 37 37 36 34 32 29 27 24 23 22 21 19 18 18
10 10 9 10 10 10 10 10 10 11 12 12 10 9 9 9 9 11 13 15 17 20 23 27 29 31 33 35 36 37 38 39 39 39 37 35 33 30 28 25 23 21 19 18
13 11 11 11 12 12 12 11 12 13 14 13 11 10 9 9 9 10 12 13 15 18 21 24 27 30 32 34 36 37 38 40 41 42 42 41 39 37 35 32 30 27 24 22
15 14 13 13 13 14 14 13 13 14 15 15 13 11 10 10 9 10 11 12 14 16 18 22 24 27 29 32 34 35 37 39 40 42 43 44 44 43 42 41 39 37 34 32

GEFSNGP_500_meanwind_030.txt.gz
Wind_Speed
38 39 41 40 38 36 35 36 36 37 39 41 43 44 44 45 45 46 47 45 41 40 43 47 51 53 55 54 54 54 54 54 54 56 57 59 60 61 61 61 60 59 59 59
39 39 40 43 45 45 42 40 42 44 47 48 48 48 49 49 49 49 48 48 47 48 51 54 55 56 57 57 57 56 56 55 55 56 56 56 57 57 57 57 57 57 58 57
41 40 40 44 46 48 48 47 47 48 50 50 50 50 50 49 49 49 51 53 54 56 57 56 56 56 56 56 55 55 54 54 53 53 52 52 53 54 54 53 54 55 55 56
40 39 37 39 42 45 46 48 49 51 52 53 53 53 53 54 55 56 57 58 57 56 55 55 55 54 54 54 53 53 52 51 50 49 49 49 50 50 50 51 52 53 53 53
36 36 35 33 35 38 39 41 43 46 48 50 52 52 52 53 54 54 54 53 53 52 53 53 53 53 53 52 51 49 47 45 44 44 45 46 47 48 49 49 50 50 49 47
34 34 34 33 33 35 36 38 39 41 42 44 44 45 46 47 48 48 49 49 50 50 50 51 51 51 50 48 46 43 42 41 41 42 43 44 45 46 46 46 44 43 42 43
29 30 31 30 30 30 33 34 35 37 39 40 42 42 43 44 45 45 46 47 47 47 48 47 47 46 44 42 40 39 38 39 40 40 41 42 41 41 41 40 40 41 41 40
23 24 25 24 25 26 27 29 32 34 35 37 38 40 41 42 43 43 43 43 44 44 43 42 41 39 38 37 36 36 36 37 37 37 37 37 37 38 38 38 38 37 36 35
20 21 22 23 24 24 25 26 28 30 32 34 36 37 38 39 39 39 39 40 40 38 37 36 35 34 33 33 33 33 33 33 33 34 35 36 36 36 35 34 33 32 30 29
20 21 22 23 23 24 25 26 27 29 30 32 32 33 34 34 34 34 34 33 32 31 30 29 29 29 29 29 29 30 31 32 34 35 35 34 34 33 31 29 28 26 25 24
20 20 21 22 23 24 25 26 27 28 29 29 29 29 29 29 28 27 26 25 24 24 24 24 24 25 26 27 29 30 31 32 33 33 32 31 29 27 25 24 22 21 20 19
19 21 22 23 24 25 25 25 25 25 25 25 24 23 22 21 20 20 19 18 18 18 19 20 22 24 26 28 29 30 31 31 30 29 27 25 23 22 20 19 18 17 17 16
18 19 21 22 22 22 22 21 21 20 20 18 17 15 14 14 14 13 13 13 14 15 18 20 22 25 27 28 29 29 29 28 26 25 23 20 18 17 16 15 15 15 14 13
16 17 17 18 18 17 16 15 14 14 12 11 10 9 8 8 8 8 9 11 13 16 19 21 23 25 27 27 27 27 26 24 23 21 19 17 15 13 13 12 12 11 10 10
13 14 14 14 13 12 11 10 9 7 6 5 4 4 4 4 5 6 9 11 14 17 20 22 24 26 26 26 25 24 22 21 20 18 16 14 12 11 10 9 8 7 7 7
11 10 9 8 6 5 6 5 4 3 1 1 1 2 3 4 6 8 11 14 16 19 21 24 25 26 26 26 24 23 21 19 17 15 13 11 10 8 7 6 5 4 5 5
7 5 3 2 1 3 4 4 4 3 2 3 3 4 5 6 8 11 13 16 19 21 23 25 25 26 25 25 24 22 19 17 15 13 10 9 7 6 4 3 3 4 4 6
4 2 1 2 4 5 6 6 5 5 5 5 6 7 7 9 11 13 16 18 20 23 24 25 26 26 26 25 24 21 19 16 14 12 10 8 6 5 5 5 5 6 7 9
2 1 2 4 6 7 7 7 7 7 8 8 8 9 9 11 13 15 18 20 22 23 25 26 27 27 27 27 25 23 20 18 15 13 12 10 9 8 8 8 9 9 10 11
1 2 4 5 6 7 7 8 9 9 9 9 10 10 10 12 14 17 19 21 23 24 25 27 28 29 29 28 26 24 22 20 18 16 14 13 12 12 12 12 13 13 14 14
2 3 5 5 5 6 8 9 10 10 10 10 10 10 11 13 14 17 19 22 23 24 26 28 30 32 32 31 29 27 25 23 21 19 18 17 17 17 16 16 16 16 16 16
4 4 5 6 6 7 8 9 10 10 10 10 9 10 11 13 15 17 20 22 23 25 27 29 31 33 34 33 32 30 28 27 25 24 22 22 21 20 19 18 18 17 16 15
5 5 5 5 6 7 8 9 10 10 10 9 9 10 11 12 14 16 19 21 23 25 27 30 32 33 35 35 34 33 32 30 29 28 26 25 24 22 21 19 18 17 15 14
7 6 6 5 6 6 8 9 10 10 10 9 9 9 10 11 13 15 18 20 22 25 27 29 31 32 34 36 36 36 35 34 33 32 30 28 26 24 22 20 18 16 14 13
8 7 6 6 6 7 8 9 10 10 10 9 8 8 9 10 11 13 16 18 21 23 25 27 29 31 33 35 36 37 37 37 37 36 35 33 30 28 26 23 21 19 16 13
9 7 7 6 7 7 8 9 10 11 10 9 8 8 8 9 10 12 14 17 19 21 22 24 27 29 31 33 34 35 36 37 37 38 38 37 35 33 30 28 26 24 21 18
10 9 7 7 7 7 8 9 11 12 11 10 9 9 8 8 9 10 12 15 17 18 20 22 25 27 29 30 31 32 34 35 35 35 36 36 36 35 34 32 30 28 27 24

GEFSNGP_500_meanwind_036.txt.gz
Wind_Speed
31 33 34 35 35 36 37 37 37 38 40 40 41 42 42 42 41 40 39 39 40 42 44 45 47 50 52 54 55 57 58 58 58 58 58 57 57 57 58 58 58 58 58 58
34 35 37 38 38 38 39 39 39 39 40 40 41 42 41 39 39 39 40 41 43 45 47 49 51 53 55 57 57 58 57 57 57 56 56 56 56 57 56 56 56 56 55 55
36 37 38 40 39 40 40 41 41 41 42 43 41 39 39 39 40 41 43 45 47 48 50 52 54 55 55 55 55 55 55 55 55 54 54 55 55 55 54 53 53 52 52 52
36 37 38 38 38 38 38 38 39 40 40 39 39 38 38 38 40 41 42 44 45 47 49 51 52 53 53 54 53 53 53 53 53 53 52 52 51 50 50 49 49 49 49 49
32 34 36 36 36 35 35 34 34 34 34 35 35 35 36 36 37 39 41 43 45 47 49 50 51 51 51 51 51 51 50 50 50 49 48 48 47 46 46 46 46 46 46 46
26 27 29 30 30 31 32 31 31 32 32 34 35 35 36 38 39 41 43 44 46 47 48 48 48 48 48 48 48 48 47 47 46 45 44 44 43 43 43 43 43 43 43 44
21 22 24 24 25 26 26 26 28 30 32 33 34 36 37 38 40 41 42 43 43 44 44 45 45 45 45 45 44 44 43 42 41 41 40 40 40 40 40 41 41 42 42 41
18 19 19 19 21 23 23 24 25 27 28 29 31 32 34 35 36 37 38 39 40 40 41 41 41 41 40 40 39 39 38 37 37 37 37 38 38 39 39 39 39 39 38 37
15 16 16 17 18 20 21 22 23 24 25 26 27 29 30 31 32 33 34 35 36 37 37 37 36 36 35 34 34 34 34 34 35 36 36 37 37 37 37 36 35 34 32 30
14 14 16 16 16 17 18 19 20 22 23 25 26 27 28 29 30 31 31 31 31 31 31 30 30 30 29 30 31 32 33 34 35 35 36 36 35 34 33 31 29 27 25 23
13 14 15 16 17 17 18 19 20 22 23 24 25 26 26 26 26 26 26 26 25 25 25 25 25 26 27 29 30 32 33 34 34 34 34 33 31 29 27 25 22 20 18 17
13 14 15 16 17 18 19 19 20 21 21 21 22 21 21 21 21 20 20 20 20 20 21 22 24 25 27 29 30 32 32 32 32 31 30 28 25 23 20 18 16 15 14 13
13 14 15 15 16 17 17 18 17 17 16 16 16 16 16 15 15 15 14 15 15 17 19 21 24 26 28 29 31 31 31 30 28 26 24 21 19 17 15 13 12 11 10 10
13 14 14 14 14 14 14 13 12 11 11 11 11 10 10 10 9 10 11 12 15 17 20 23 25 27 28 30 30 29 27 25 23 20 18 15 13 12 10 9 8 8 7 7
12 12 12 12 12 11 10 9 7 6 6 5 5 5 5 5 6 8 11 13 16 19 21 24 26 28 29 28 27 25 22 20 18 15 13 11 9 7 6 5 5 5 5 6
10 10 9 8 7 5 4 3 2 1 1 1 2 2 3 5 7 10 13 15 18 20 22 25 26 27 27 25 23 21 19 16 14 11 9 7 6 4 3 3 4 5 5 7
8 7 6 4 2 0 1 2 3 2 2 3 4 5 6 8 10 12 15 17 19 21 24 26 27 26 25 23 21 19 16 14 12 9 7 6 5 5 5 5 6 7 8 10
5 4 3 1 1 2 3 3 3 3 4 6 6 7 9 10 12 14 16 18 21 23 25 26 26 25 24 23 21 19 16 14 12 10 9 8 8 8 8 9 9 11 12 14
3 1 0 2 3 4 4 5 5 6 7 8 9 9 10 12 14 15 17 20 23 24 25 26 26 25 25 24 22 20 18 16 15 13 13 13 13 13 13 13 13 14 15 15
1 1 3 4 5 6 6 6 7 9 9 9 10 10 12 13 15 17 19 21 24 25 25 25 26 26 26 25 24 23 22 21 20 18 18 17 17 16 16 16 17 16 16 15
3 3 4 5 6 6 7 8 9 10 10 10 10 11 12 14 16 18 19 22 24 25 26 26 27 27 27 27 26 26 25 24 23 23 22 21 20 19 18 17 17 16 15 14
4 5 6 7 7 7 7 8 9 10 10 10 10 11 12 14 16 18 20 22 24 25 27 28 29 29 29 29 28 27 27 26 25 24 23 22 20 19 17 16 15 14 13 12
6 6 7 8 8 8 8 9 10 10 10 10 10 11 12 14 16 17 19 21 23 25 26 28 29 30 31 32 32 30 29 27 26 25 23 22 20 18 16 15 14 13 12 12
8 8 8 9 9 9 10 10 10 10 10 10 10 10 12 13 15 16 18 20 22 24 25 27 28 29 30 31 32 32 31 30 28 27 25 23 21 18 16 14 13 12 12 12
10 10 10 10 10 11 11 11 11 11 11 10 9 10 11 12 13 15 17 19 21 22 23 25 26 28 28 29 30 31 31 30 29 28 27 26 24 21 18 15 14 13 13 13
12 11 11 11 12 12 12 12 12 12 11 10 10 9 10 10 12 14 16 18 19 21 22 23 25 26 27 28 29 30 30 30 29 29 28 28 27 26 24 21 19 17 16 16
13 13 12 12 12 13 13 13 13 13 12 11 10 9 9 9 10 12 14 16 17 18 20 21 22 24 25 26 27 28 29 30 30 29 29 29 29 29 29 27 26 24 22 21

GEFSNGP_500_meanwind_042.txt.gz
Wind_Speed
21 22 24 25 27 28 31 32 31 33 35 35 35 35 35 36 37 38 39 41 42 42 43 43 44 44 44 45 45 46 47 49 50 51 52 53 54 54 55 55 55 55 55 55
22 24 25 27 28 30 31 33 34 35 36 37 36 37 37 37 38 39 40 41 41 41 42 42 42 42 43 44 44 45 46 48 50 51 52 53 54 54 54 54 54 54 54 54
21 22 24 27 29 31 32 33 34 35 37 37 38 38 38 39 39 39 40 40 40 40 39 39 41 41 41 42 43 45 47 49 50 51 52 53 53 53 52 52 52 52 52 51
20 21 23 27 27 29 31 33 33 35 36 37 37 37 37 38 38 38 38 37 37 37 38 39 40 40 41 43 45 47 48 49 50 50 51 51 50 50 50 50 49 49 49 48
18 19 21 24 24 25 28 30 32 33 34 35 35 35 36 35 35 35 34 34 35 36 37 38 40 42 43 45 46 47 48 48 48 48 48 48 48 47 47 47 47 46 46 45
16 16 19 21 21 22 24 28 28 29 30 30 30 31 31 31 31 32 33 35 35 37 38 40 41 42 43 44 45 45 46 46 46 46 46 45 45 45 44 44 44 43 43 43
14 15 17 16 16 17 20 23 23 24 25 25 26 27 27 28 29 30 32 33 35 36 38 39 40 42 42 43 43 43 43 44 44 43 43 43 43 42 42 42 42 42 42 41
12 13 14 13 13 15 16 18 19 21 21 22 23 24 25 26 27 29 31 32 34 35 37 38 39 39 40 40 41 41 41 41 41 41 40 40 40 40 40 40 39 39 38 37
11 12 13 13 13 13 15 16 18 19 19 20 21 23 24 25 26 28 30 31 32 33 35 36 36 37 37 37 37 38 38 38 39 39 39 39 39 38 37 36 36 35 33 31
11 11 12 12 12 13 13 14 16 17 18 19 21 22 23 24 26 27 28 29 30 31 31 31 32 33 33 34 35 36 37 37 38 38 37 36 36 34 33 31 30 28 25 23
11 11 12 13 14 14 15 16 17 18 19 20 20 21 22 22 23 24 25 25 26 26 27 28 29 30 31 33 34 35 36 36 36 35 34 32 30 28 26 24 22 20 18 17
11 11 12 13 14 14 15 16 16 17 18 18 18 19 19 20 20 20 21 21 21 22 24 25 27 29 31 32 33 34 34 33 31 30 27 25 22 20 17 16 14 13 12 11
11 11 12 13 13 14 14 14 15 15 15 15 15 15 15 15 15 15 16 17 18 20 22 24 27 28 30 30 31 30 28 26 24 22 19 16 14 12 11 9 8 7 7 6
11 11 12 12 12 12 12 12 12 12 11 11 11 11 11 11 11 11 13 15 18 19 21 23 25 27 27 27 26 24 22 19 16 14 12 9 8 6 5 5 4 3 3 2
10 10 10 10 9 9 9 8 8 7 7 7 7 7 6 7 8 10 13 15 17 19 20 22 24 25 25 24 22 20 16 14 11 8 6 4 3 2 2 2 2 3 4 6
9 8 7 7 6 6 5 5 4 4 3 3 3 3 4 6 9 11 13 15 16 18 19 21 23 24 23 22 20 17 14 11 8 6 4 3 3 3 4 5 6 7 8 9
8 7 5 4 4 3 2 1 1 1 0 1 2 3 5 7 10 12 13 15 16 17 19 20 22 22 22 21 20 17 14 12 9 8 7 7 7 7 7 8 9 11 12 12
6 5 3 2 1 1 2 3 2 2 2 2 3 4 6 8 10 12 13 15 17 18 19 20 21 22 22 21 20 18 17 15 13 12 10 10 10 10 11 12 13 14 14 14
5 3 2 2 2 2 3 4 3 3 4 4 4 6 8 9 11 13 14 16 17 19 20 21 21 21 21 21 21 20 19 18 16 15 14 13 13 13 13 14 14 14 14 14
4 2 2 3 3 4 5 5 5 5 5 5 5 7 9 10 12 13 15 17 18 20 21 22 22 22 22 22 21 21 20 19 17 16 15 14 14 14 14 14 14 14 13 13
4 3 3 4 5 5 6 6 6 6 6 5 6 8 9 10 12 14 15 17 19 20 21 22 23 24 23 22 22 21 20 18 17 15 14 14 13 13 13 13 13 12 12 12
4 4 5 6 6 7 7 7 7 6 6 6 6 8 9 10 12 13 15 17 18 20 21 22 23 24 24 23 22 21 20 18 16 14 13 12 11 11 11 11 11 11 11 11
6 6 6 7 8 8 8 8 8 7 6 6 6 7 8 10 11 13 15 16 18 19 20 21 22 23 23 23 23 22 21 19 17 14 12 11 10 10 10 10 10 10 11 11
8 8 8 8 9 9 9 9 9 8 7 6 6 7 8 9 11 13 14 16 17 18 19 20 21 22 22 22 22 22 22 21 19 16 13 12 11 10 11 11 11 11 11 11
10 9 9 9 10 10 10 10 11 9 8 7 6 6 7 8 10 11 13 15 16 17 19 20 21 22 22 22 22 22 22 22 21 19 17 15 14 13 13 13 12 12 12 12
11 11 11 11 11 11 12 12 12 11 9 8 6 5 6 7 8 9 11 13 15 16 18 19 21 22 23 23 23 23 23 23 22 22 21 20 18 17 16 16 15 15 15 14
13 12 12 12 12 12 12 12 12 12 11 9 7 6 5 5 6 7 9 11 14 15 16 18 20 21 22 23 23 23 23 24 24 24 23 22 22 21 20 19 18 18 17 17

GEFSNGP_500_meanwind_048.txt.gz
Wind_Speed
16 16 16 16 17 19 21 22 25 28 32 35 37 36 35 34 32 31 32 33 35 38 40 42 44 45 46 47 48 50 51 52 54 54 54 54 55 55 54 55 55 55 56 57
16 17 18 17 19 21 23 24 27 31 34 36 36 36 37 35 32 33 33 35 37 40 42 43 45 46 46 47 47 49 49 49 50 51 52 52 52 52 52 53 54 55 55 55
15 17 17 18 23 24 26 28 30 32 34 37 40 41 40 38 37 37 36 36 37 37 39 41 42 42 44 45 46 46 46 45 45 46 48 49 50 50 51 52 53 53 53 53
15 16 17 23 25 26 27 30 31 33 35 38 39 41 42 41 40 38 39 39 38 38 37 38 39 40 41 41 40 42 43 44 45 46 46 47 48 49 49 50 50 50 51 50
13 15 19 23 24 24 26 29 30 31 33 35 36 37 38 38 37 37 36 36 36 37 37 38 39 39 40 41 41 42 43 44 46 46 47 47 48 48 48 49 49 48 48 48
14 16 20 24 24 24 25 28 28 29 30 30 31 33 34 34 34 33 33 34 34 35 37 38 38 39 39 40 41 42 43 44 45 46 46 47 47 47 47 47 47 46 46 45
16 17 20 21 23 23 24 25 25 25 26 27 28 27 28 29 29 29 30 30 32 33 34 35 36 38 39 39 40 41 42 43 44 44 45 45 45 45 45 44 44 43 42 41
17 17 19 18 19 21 22 23 23 23 23 23 23 23 23 25 26 27 28 29 30 31 32 33 35 36 37 38 39 40 41 42 42 43 43 43 42 42 41 40 39 38 37 36
18 18 18 17 17 18 19 20 20 21 21 21 21 21 22 23 24 25 27 28 29 30 31 32 33 34 36 37 38 39 40 40 41 41 40 40 39 38 37 36 34 33 32 31
18 18 17 16 17 17 17 17 17 18 19 19 20 20 21 22 23 23 24 25 26 28 29 30 31 33 34 35 36 37 38 38 38 38 37 36 34 33 31 29 28 27 25 24
18 17 17 16 16 16 16 16 17 18 18 18 18 19 19 20 20 21 22 23 24 25 26 27 29 30 31 33 34 35 36 36 35 34 32 30 27 25 23 21 20 19 17 16
17 17 17 16 16 16 16 16 17 17 17 17 17 17 17 17 18 19 20 20 22 23 24 25 26 28 30 32 33 33 33 31 29 27 25 22 20 18 16 15 14 13 12 10
17 17 17 17 16 16 16 16 16 16 16 15 14 14 14 15 16 17 18 19 20 22 22 23 24 26 28 30 31 30 29 26 23 19 17 16 14 12 11 11 10 9 8 7
17 16 16 15 15 14 14 13 13 13 12 11 11 11 12 14 15 15 17 19 19 20 21 21 22 24 26 27 27 26 24 20 17 14 12 11 10 9 8 7 7 7 7 6
16 15 15 14 13 12 11 11 11 10 9 8 9 10 12 13 14 15 17 17 17 18 19 20 21 22 23 24 24 23 20 16 14 12 11 9 8 8 7 7 7 6 7 7
15 14 13 13 11 10 9 9 8 7 6 7 8 10 11 13 14 15 15 16 16 17 18 19 19 20 21 21 21 20 18 16 14 13 11 10 9 8 8 8 9 9 9 10
14 13 12 11 9 8 7 7 6 5 5 6 7 9 11 13 14 14 14 15 16 17 17 18 18 18 19 19 19 19 18 17 16 14 13 12 11 11 10 10 11 12 12 12
13 12 10 9 7 6 5 5 4 4 4 5 7 9 11 12 13 13 14 15 15 16 17 18 18 18 17 17 18 18 17 17 16 15 14 13 12 12 12 12 13 13 13 13
12 11 10 8 6 5 4 3 3 3 4 6 8 9 11 12 13 13 14 14 15 16 17 18 19 18 17 17 16 15 15 15 14 14 13 13 13 12 13 13 13 13 14 13
11 10 9 7 5 4 4 3 1 2 3 6 7 9 11 12 12 13 14 15 16 17 18 19 18 18 17 17 16 15 14 13 12 12 12 12 12 12 12 12 13 13 13 13
10 9 7 6 5 4 3 2 1 1 3 5 7 8 10 12 13 14 14 15 17 18 18 19 18 18 18 18 16 14 13 12 11 10 10 10 10 11 11 12 12 12 12 12
10 8 7 5 4 4 3 2 1 0 2 4 6 8 10 11 13 14 15 16 17 18 19 19 19 18 19 18 17 15 13 11 10 10 9 9 9 9 10 10 11 11 11 11
10 8 6 5 4 4 4 3 2 1 1 3 5 7 9 10 12 14 16 17 17 19 20 20 20 19 19 18 17 16 14 12 10 10 9 9 9 9 9 10 10 10 11 11
10 8 7 6 5 5 5 4 3 2 1 1 3 6 7 9 12 14 16 17 18 19 20 20 20 20 19 18 18 18 16 14 12 11 11 10 10 10 10 10 10 10 10 10
10 9 8 7 6 6 6 5 5 4 2 0 2 4 6 8 11 13 15 17 18 19 19 20 21 21 20 21 20 19 17 16 14 13 13 13 12 12 11 11 11 11 11 11
11 9 8 8 7 7 7 7 6 6 4 2 0 2 5 7 9 11 13 15 17 17 18 19 20 21 22 23 22 20 19 18 17 16 15 15 15 14 14 13 13 13 13 13
11 10 9 8 8 8 8 8 8 7 6 4 2 1 3 5 7 9 12 14 16 17 18 19 19 20 21 22 22 22 21 20 19 19 18 17 17 16 16 16 15 15 15 15